Bellmunt





Hora UTC 17:30
Temperatura 15.8 ºC
Humitat 67.0 %
Pressió 1021.4 hPa
Pluja 0.0 mm
Velocitat vent 12.9 km/h
Direcció vent ENE

Dades diàries 2020-05-25



Hora UTC (hivern +1h; estiu +2h)
Temperatura (ºC) Humitat (%) Pressió (hPa) Velocitat vent (km/h) Precipitació (mm)
Hora UTC Aire Humitat Pressió Vel. Dir. Vel. Max Dir. Intent. màx 5 min.
00:05 12.7 82.0 1025.2 1.6 S 1.6 0.0
00:10 12.6 82.0 1025.3 0.0 S 3.2 0.0
00:15 17.4 84.0 1025.3 0.0 S 0.0 0.0
00:20 17.3 83.0 1025.1 0.0 SSE 0.0 0.0
00:25 17.4 83.0 1025.1 0.0 SSE 0.0 0.0
00:30 17.4 83.0 1025.0 0.0 SSE 0.0 0.0
00:30 17.4 83.0 1025.0 0.0 SSE 0.0 0.0
00:40 17.5 83.0 1025.0 0.0 SSE 0.0 0.0
00:45 17.5 83.0 1025.0 0.0 SSE 0.0 0.0
00:50 17.5 83.0 1025.0 0.0 SSW 1.6 0.0
00:55 17.5 82.0 1024.8 0.0 SSW 0.0 0.0
01:00 17.5 82.0 1024.8 0.0 SSW 0.0 0.0
01:05 17.6 81.0 1024.7 0.0 SSW 0.0 0.0
01:10 17.6 82.0 1024.7 0.0 SSW 0.0 0.0
01:15 17.7 83.0 1024.6 0.0 SSW 0.0 0.0
01:20 17.7 84.0 1024.5 0.0 SSW 0.0 0.0
01:25 17.5 84.0 1024.4 0.0 SSW 0.0 0.0
01:30 17.3 84.0 1024.4 0.0 SSW 0.0 0.0
01:30 17.3 84.0 1024.4 0.0 SSW 0.0 0.0
01:40 17.1 84.0 1024.3 0.0 E 0.0 0.0
01:45 17.0 84.0 1024.2 0.0 E 0.0 0.0
01:50 17.1 84.0 1024.0 0.0 E 0.0 0.0
01:55 17.1 84.0 1023.9 0.0 E 1.6 0.0
02:00 17.1 84.0 1023.9 0.0 E 1.6 0.0
02:05 17.2 84.0 1023.8 0.0 E 1.6 0.0
02:10 17.2 84.0 1023.8 0.0 E 0.0 0.0
02:15 17.0 84.0 1023.8 0.0 E 0.0 0.0
02:20 16.9 84.0 1023.8 0.0 E 0.0 0.0
02:25 16.8 84.0 1023.7 0.0 E 0.0 0.0
02:30 16.7 84.0 1023.6 0.0 ENE 0.0 0.0
02:30 16.7 84.0 1023.7 0.0 ENE 1.6 0.0
02:40 16.8 84.0 1023.6 0.0 ENE 1.6 0.0
02:45 16.9 84.0 1023.6 0.0 ENE 0.0 0.0
02:50 16.9 84.0 1023.6 0.0 ENE 0.0 0.0
02:55 17.0 84.0 1023.6 0.0 ENE 0.0 0.0
03:00 16.9 83.0 1023.6 0.0 ENE 0.0 0.0
03:05 17.4 66.0 1023.6 0.0 ENE 1.6 0.0
03:10 17.4 66.0 1023.6 0.0 ENE 1.6 0.0
03:15 17.4 64.0 1023.5 1.6 ENE 3.2 0.0
03:20 17.4 64.0 1023.6 3.2 ENE 3.2 0.0
03:25 17.3 63.0 1023.6 0.0 ENE 4.8 0.0
03:30 17.2 63.0 1023.6 0.0 ENE 4.8 0.0
03:30 17.2 63.0 1023.5 0.0 ENE 3.2 0.0
03:40 17.3 63.0 1023.6 0.0 ENE 1.6 0.0
03:45 17.3 63.0 1023.6 0.0 ENE 0.0 0.0
03:50 17.3 63.0 1023.6 0.0 ENE 0.0 0.0
03:55 17.3 64.0 1023.5 0.0 ENE 0.0 0.0
04:00 17.2 63.0 1023.5 0.0 ENE 0.0 0.0
04:05 17.2 64.0 1023.5 0.0 ENE 0.0 0.0
04:10 17.2 64.0 1023.5 0.0 ENE 0.0 0.0
04:15 17.2 65.0 1023.5 0.0 ENE 0.0 0.0
04:20 17.2 65.0 1023.5 0.0 ENE 0.0 0.0
04:25 17.1 65.0 1023.5 0.0 ENE 0.0 0.0
04:30 17.1 65.0 1023.5 0.0 ENE 0.0 0.0
04:30 17.1 65.0 1023.5 0.0 ENE 0.0 0.0
04:40 17.0 65.0 1023.6 0.0 ENE 0.0 0.0
04:45 17.1 66.0 1023.6 0.0 ENE 0.0 0.0
04:50 17.1 65.0 1023.6 0.0 ENE 1.6 0.0
04:55 17.2 65.0 1023.6 0.0 ENE 1.6 0.0
05:00 17.2 65.0 1023.7 0.0 ENE 1.6 0.0
05:05 17.3 64.0 1023.7 1.6 ENE 3.2 0.0
05:10 17.3 64.0 1023.7 3.2 ENE 3.2 0.0
05:15 17.3 64.0 1023.7 0.0 ENE 3.2 0.0
05:20 17.3 64.0 1023.7 0.0 ENE 1.6 0.0
05:25 17.4 63.0 1023.8 0.0 ENE 1.6 0.0
05:30 17.5 63.0 1023.8 0.0 ENE 1.6 0.0
05:30 17.6 63.0 1023.8 3.2 ENE 3.2 0.0
05:40 17.6 62.0 1023.9 1.6 ENE 3.2 0.0
05:45 17.6 63.0 1024.0 1.6 ENE 3.2 0.0
05:50 17.7 62.0 1023.9 0.0 ENE 1.6 0.0
05:55 17.8 62.0 1023.9 0.0 ENE 1.6 0.0
06:00 17.8 62.0 1023.9 0.0 ENE 0.0 0.0
06:05 17.9 62.0 1024.0 0.0 ENE 1.6 0.0
06:10 17.9 62.0 1024.1 0.0 ENE 1.6 0.0
06:15 18.0 62.0 1024.1 0.0 ENE 1.6 0.0
06:20 18.1 62.0 1024.1 1.6 ENE 1.6 0.0
06:25 18.1 62.0 1024.2 0.0 ENE 1.6 0.0
06:30 18.1 62.0 1024.2 0.0 ENE 1.6 0.0
06:30 18.2 62.0 1024.1 0.0 ENE 1.6 0.0
06:40 18.3 61.0 1024.1 0.0 ENE 1.6 0.0
06:45 18.4 61.0 1024.1 0.0 ENE 1.6 0.0
06:50 18.5 61.0 1024.1 0.0 ENE 1.6 0.0
06:55 18.6 60.0 1024.1 0.0 ENE 1.6 0.0
07:00 18.7 60.0 1024.0 0.0 ENE 1.6 0.0
07:05 18.7 60.0 1024.0 0.0 ENE 3.2 0.0
07:10 18.7 58.0 1024.0 0.0 ENE 4.8 0.0
07:15 18.8 59.0 1024.0 1.6 E 4.8 0.0
07:20 18.9 57.0 1024.1 4.8 ESE 6.4 0.0
07:25 18.9 56.0 1024.0 0.0 ESE 6.4 0.0
07:30 18.9 56.0 1024.0 0.0 SE 6.4 0.0
07:30 19.1 56.0 1024.0 0.0 SE 6.4 0.0
07:40 18.9 57.0 1024.0 3.2 SSE 6.4 0.0
07:45 18.9 57.0 1024.0 4.8 SSE 9.7 0.0
07:50 18.8 58.0 1024.0 8.0 SSE 11.3 0.0
07:55 18.8 58.0 1023.9 4.8 SE 11.3 0.0
08:00 18.8 58.0 1023.9 4.8 ESE 11.3 0.0
08:05 18.9 56.0 1023.9 3.2 SSE 11.3 0.0
08:10 18.9 55.0 1023.8 3.2 SE 11.3 0.0
08:15 19.1 54.0 1023.7 4.8 ESE 11.3 0.0
08:20 19.4 53.0 1023.7 3.2 ESE 11.3 0.0
08:25 19.7 52.0 1023.6 0.0 SE 6.4 0.0
08:30 20.1 52.0 1023.6 0.0 ESE 6.4 0.0
08:30 20.1 51.0 1023.6 0.0 ESE 6.4 0.0
08:40 20.2 51.0 1023.6 1.6 SE 6.4 0.0
08:45 20.3 50.0 1023.6 1.6 SE 4.8 0.0
08:50 20.7 49.0 1023.6 0.0 S 8.0 0.0
08:55 21.1 48.0 1023.6 8.0 SW 8.0 0.0
09:00 20.9 49.0 1023.6 3.2 SW 8.0 0.0
09:05 20.8 48.0 1023.7 4.8 SSW 8.0 0.0
09:10 20.8 46.0 1023.7 1.6 S 8.0 0.0
09:15 20.9 45.0 1023.8 3.2 SSW 8.0 0.0
09:20 20.9 45.0 1023.8 4.8 SSW 8.0 0.0
09:25 20.7 46.0 1023.8 0.0 SSW 8.0 0.0
09:30 20.8 46.0 1023.9 8.0 SW 8.0 0.0
09:30 20.8 48.0 1023.8 4.8 SW 8.0 0.0
09:40 20.9 49.0 1023.9 4.8 SW 6.4 0.0
09:45 20.9 45.0 1024.0 1.6 SW 9.7 0.0
09:50 21.1 44.0 1024.0 4.8 S 12.9 0.0
09:55 21.3 49.0 1024.0 1.6 S 12.9 0.0
10:00 21.3 49.0 1024.0 4.8 SSW 8.0 0.0
10:05 21.4 50.0 1024.0 1.6 SW 8.0 0.0
10:10 21.7 47.0 1024.0 0.0 SSE 8.0 0.0
10:15 21.9 49.0 1023.9 0.0 SSW 8.0 0.0
10:20 22.2 47.0 1023.9 3.2 SSW 9.7 0.0
10:25 22.0 49.0 1023.8 1.6 SSW 9.7 0.0
10:30 21.8 50.0 1023.8 8.0 SW 9.7 0.0
10:35 21.3 51.0 1023.8 3.2 WSW 11.3 0.0
10:40 21.2 51.0 1023.8 4.8 SW 9.7 0.0
10:45 21.3 51.0 1023.8 1.6 SSW 9.7 0.0
10:50 21.6 50.0 1023.7 1.6 SW 9.7 0.0
10:55 21.5 51.0 1023.7 0.0 SSW 9.7 0.0
11:00 21.6 51.0 1023.8 0.0 SSW 9.7 0.0
11:00 21.7 50.0 1023.8 8.0 SSE 11.3 0.0
11:10 21.7 50.0 1023.7 0.0 S 11.3 0.0
11:15 21.9 50.0 1023.7 1.6 SSW 8.0 0.0
11:20 21.8 49.0 1023.6 3.2 SSE 8.0 0.0
11:25 22.1 49.0 1023.7 0.0 SSE 6.4 0.0
11:30 22.3 49.0 1023.7 1.6 S 6.4 0.0
11:35 22.6 49.0 1023.7 8.0 SSE 11.3 0.0
11:40 22.8 50.0 1023.7 1.6 S 11.3 0.0
11:45 23.1 47.0 1023.7 8.0 SSE 9.7 0.0
11:50 23.2 47.0 1023.7 8.0 SE 12.9 0.0
11:55 23.1 48.0 1023.6 3.2 SSE 12.9 0.0
12:00 22.9 47.0 1023.6 1.6 SSW 9.7 0.0
12:00 22.9 49.0 1023.5 1.6 SSW 9.7 0.0
12:10 22.8 48.0 1023.6 3.2 SSE 6.4 0.0
12:15 22.6 48.0 1023.6 0.0 SSE 6.4 0.0
12:20 22.6 48.0 1023.5 6.4 SSE 8.0 0.0
12:25 22.3 48.0 1023.5 0.0 SSE 9.7 0.0
12:30 22.2 49.0 1023.5 0.0 SSE 9.7 0.0
12:35 22.3 48.0 1023.4 0.0 E 4.8 0.0
12:40 22.2 48.0 1023.4 0.0 E 4.8 0.0
12:45 22.3 49.0 1023.4 0.0 E 1.6 0.0
12:50 22.6 49.0 1023.3 1.6 SE 4.8 0.0
12:55 22.7 48.0 1023.2 0.0 SE 4.8 0.0
13:00 23.1 46.0 1023.2 0.0 NE 6.4 0.0
13:05 23.4 47.0 1023.0 0.0 NE 6.4 0.0
13:10 24.1 47.0 1023.0 0.0 ESE 4.8 0.0
13:15 24.6 43.0 1022.9 6.4 E 9.7 0.0
13:20 24.1 44.0 1022.8 1.6 E 9.7 0.0
13:25 23.8 45.0 1022.9 0.0 E 9.7 0.0
13:30 23.7 45.0 1022.7 1.6 SSW 4.8 0.0
13:30 23.8 47.0 1022.7 1.6 SSE 9.7 0.0
13:40 23.8 46.0 1022.7 0.0 SSE 9.7 0.0
13:45 24.1 45.0 1022.6 4.8 SSE 9.7 0.0
13:50 24.5 45.0 1022.6 6.4 SW 8.0 0.0
13:55 24.9 43.0 1022.5 0.0 SSE 11.3 0.0
14:00 24.9 42.0 1022.4 0.0 S 14.5 0.0
14:05 24.9 44.0 1022.4 9.7 ESE 14.5 0.0
14:10 25.1 45.0 1022.3 0.0 E 11.3 0.0
14:15 25.2 43.0 1022.2 8.0 SW 14.5 0.0
14:20 24.6 45.0 1022.1 6.4 SSW 14.5 0.0
14:25 23.9 45.0 1022.1 8.0 SE 12.9 0.0
14:30 23.8 45.0 1022.1 16.1 SE 16.1 0.0
14:30 23.5 46.0 1022.1 11.3 E 17.7 0.0
14:40 23.3 48.0 1022.2 12.9 S 22.5 0.0
14:45 23.2 47.0 1022.2 4.8 SSE 22.5 0.0
14:50 23.3 48.0 1022.0 3.2 SSE 16.1 0.0
14:55 23.5 49.0 1022.0 4.8 S 9.7 0.0
15:00 23.6 47.0 1022.1 4.8 SE 8.0 0.0
15:05 23.6 47.0 1022.1 0.0 SSE 8.0 0.0
15:10 23.8 46.0 1022.0 4.8 SSE 8.0 0.0
15:15 24.0 45.0 1022.0 6.4 ESE 9.7 0.0
15:20 24.0 45.0 1022.0 6.4 SE 12.9 0.0
15:25 23.7 46.0 1021.9 9.7 ESE 16.1 0.0
15:30 23.7 47.0 1021.9 12.9 ESE 16.1 0.0
15:35 23.6 47.0 1022.0 8.0 ESE 14.5 0.0
15:40 23.4 47.0 1021.9 4.8 ESE 16.1 0.0
15:45 23.3 47.0 1021.9 8.0 SE 16.1 0.0
15:50 23.0 47.0 1021.8 6.4 SE 14.5 0.0
15:55 23.0 48.0 1021.8 6.4 SE 12.9 0.0
16:00 23.3 46.0 1021.7 8.0 SE 12.9 0.0
16:05 23.6 45.0 1021.7 11.3 SE 12.9 0.0
16:10 23.6 44.0 1021.7 8.0 SE 12.9 0.0
16:15 23.9 42.0 1021.7 6.4 SE 12.9 0.0
16:20 23.6 43.0 1021.7 6.4 ESE 12.9 0.0
16:25 23.3 43.0 1021.6 4.8 E 11.3 0.0
16:30 23.2 42.0 1021.7 6.4 SE 12.9 0.0
16:35 22.9 42.0 1021.6 1.6 SE 12.9 0.0
16:40 22.9 44.0 1021.5 0.0 SE 6.4 0.0
16:45 22.9 42.0 1021.6 0.0 SE 3.2 0.0
16:50 22.9 41.0 1021.4 0.0 SE 3.2 0.0
16:55 22.9 41.0 1021.4 0.0 SE 1.6 0.0
17:00 23.1 42.0 1021.4 1.6 SE 4.8 0.0
17:05 23.4 43.0 1021.4 4.8 ESE 9.7 0.0
17:10 23.4 41.0 1021.4 8.0 ESE 9.7 0.0
17:15 15.7 69.0 1021.4 3.2 ENE 14.5 0.0
17:20 15.8 68.0 1021.4 4.8 E 14.5 0.0
17:25 15.7 68.0 1021.4 3.2 ESE 14.5 0.0
17:30 15.8 67.0 1021.4 12.9 ENE 16.1 0.0
Màxima 25.4 84.0 1025.3 16.1 SE 22.5 0.0
Mínima 12.3 41.0 1021.4
Total 0.0